Location: Hiekkapohja
(62.3333°N, 25.7833°E)
Time: 19:18:43
(UTC+00:00)

H-2A R/B - Pass Details

Date: 07 August 2020
Orbit: 578 x 654 km, 98.5° (Epoch: 28 September)

Event Time Altitude Azimuth Distance (km) Brightness Sun altitude
Rises 00:34:39 0° 140° (SE) 2,804 5.2 -7.2°
Reaches altitude 10° 00:36:51 10° 135° (SE) 1,903 4.4 -7.0°
Maximum altitude 00:40:48 48° 61° (ENE) 767 3.1 -6.8°
Drops below altitude 10° 00:44:47 10° 347° (NNW) 1,912 5.3 -6.5°
Sets 00:46:59 0° 342° (NNW) 2,819 6.0 -6.4°
